Location: LDNL
(36.4545°S, 141.6685°E)
Time: 19:28:53
(UTC+10:00)

A-11 Canister half - Pass Details

Date: 03 February 2022
Orbit: 1527 x 1682 km, 47.3° (Epoch: 20 May)

Event Time Altitude Azimuth Distance (km) Brightness Sun altitude
Rises 01:18:09 0° 259° (W) 4,945 11.9 -36.4°
Reaches altitude 10° 01:21:36 10° 252° (WSW) 3,953 11.4 -36.5°
Maximum altitude 01:31:13 45° 182° (S) 2,157 10.0 -36.7°
Drops below altitude 10° 01:40:38 10° 110° (ESE) 3,863 11.2 -36.8°
Sets 01:43:57 0° 103° (ESE) 4,825 11.7 -36.8°
